Temperature
7 7 7 7 7 7 7 7 6 6 6 6 6 6 6 6 5 5 5 5 5 5 4 4 4 4 4 4 3 3 3 2 2 3 3 3 3 2 2 2 2 2 2
7 7 7 6 6 6 6 6 6 6 6 6 5 5 5 5 5 5 5 4 4 4 4 4 4 3 3 3 3 3 2 2 2 2 2 2 2 2 2 2 2 2 2
7 6 6 6 6 6 6 6 6 6 5 5 5 5 5 5 4 4 4 4 4 4 4 3 3 3 3 3 2 2 2 2 1 1 2 2 1 1 1 1 1 1 1
6 6 6 6 6 6 5 5 5 5 5 5 5 4 4 4 4 4 4 4 3 3 3 3 3 2 2 2 2 2 1 1 1 1 1 1 1 0 0 0 1 1 1
6 6 6 6 5 5 5 5 5 5 5 4 4 4 4 4 4 4 3 3 3 3 3 2 2 2 2 2 1 1 1 1 0 0 -0 -0 -0 -0 -1 -1 -0 -0 0
6 5 5 5 5 5 5 5 5 5 4 4 4 4 4 4 3 3 3 3 3 2 2 2 2 2 1 1 1 1 0 0 -0 -0 -1 -1 -1 -1 -1 -2 -2 -1 -1
5 5 5 5 5 5 4 4 4 4 4 4 4 4 3 3 3 3 2 2 2 2 2 2 1 1 1 1 0 -0 -0 -0 -1 -1 -1 -1 -2 -2 -2 -2 -2 -2 -2
5 5 4 4 4 4 4 4 4 4 4 3 3 3 3 3 2 2 2 2 2 2 1 1 1 1 0 -0 -0 -0 -1 -1 -1 -2 -2 -2 -2 -3 -3 -3 -3 -3 -3
4 4 4 4 4 4 4 3 3 3 3 3 3 3 3 3 2 2 1 1 1 1 1 1 0 0 -0 -1 -1 -1 -1 -1 -2 -2 -2 -3 -3 -3 -3 -4 -4 -4 -4
4 4 4 4 3 3 3 3 3 3 3 2 2 2 2 2 2 1 1 1 1 1 1 0 -0 -0 -1 -1 -1 -2 -2 -2 -2 -2 -3 -3 -3 -4 -4 -4 -4 -4 -5
4 3 3 3 3 3 3 3 2 2 2 2 2 2 2 2 1 1 1 0 0 0 0 -0 -0 -1 -1 -2 -2 -2 -2 -3 -3 -3 -3 -3 -4 -4 -4 -4 -5 -5 -5
3 3 3 3 3 2 2 2 2 2 2 2 2 2 1 1 1 1 0 -0 -0 -1 -1 -1 -1 -1 -2 -2 -2 -3 -3 -3 -4 -4 -4 -4 -4 -4 -4 -5 -5 -5 -5
3 3 3 3 2 2 2 2 2 1 1 1 1 1 1 1 1 0 -0 -0 -1 -1 -1 -1 -2 -2 -2 -2 -3 -3 -3 -4 -4 -4 -4 -4 -4 -5 -5 -5 -5 -5 -6
3 3 3 2 2 2 1 1 1 1 1 1 1 0 0 0 0 -0 -0 -1 -1 -1 -2 -2 -2 -2 -3 -3 -3 -4 -4 -4 -4 -5 -5 -5 -5 -5 -5 -6 -6 -6 -6
3 2 2 2 2 2 1 1 1 1 0 -0 -0 -0 -1 -0 -0 -1 -1 -1 -2 -2 -2 -2 -3 -3 -3 -3 -4 -4 -4 -4 -5 -5 -5 -6 -6 -6 -6 -6 -6 -6 -6
2 2 2 2 1 1 1 1 1 0 0 -0 -0 -1 -1 -1 -1 -1 -2 -2 -2 -3 -3 -3 -3 -3 -4 -4 -4 -4 -4 -5 -5 -5 -6 -6 -6 -6 -6 -6 -7 -7 -7
2 1 1 1 1 1 0 0 0 0 -0 -0 -1 -1 -1 -1 -2 -2 -2 -2 -3 -3 -4 -4 -4 -4 -4 -4 -4 -4 -5 -5 -6 -6 -6 -6 -7 -7 -7 -7 -7 -7 -7
1 1 1 1 0 0 -0 -0 -1 -1 -1 -0 -1 -1 -2 -2 -2 -2 -3 -3 -3 -3 -4 -4 -4 -4 -4 -4 -5 -5 -5 -6 -6 -6 -6 -7 -7 -7 -7 -7 -7 -7 -8
1 1 0 0 -0 -0 -1 -1 -1 -1 -2 -1 -1 -1 -2 -2 -2 -3 -3 -3 -3 -4 -4 -4 -4 -5 -5 -5 -5 -5 -6 -6 -6 -6 -7 -7 -7 -7 -7 -7 -8 -8 -8
0 0 -0 -0 -1 -1 -1 -2 -2 -2 -2 -2 -2 -2 -3 -3 -3 -3 -3 -4 -4 -4 -4 -4 -4 -5 -5 -5 -5 -6 -6 -6 -6 -7 -7 -7 -7 -8 -8 -8 -8 -8 -8
-0 -0 -1 -1 -1 -1 -2 -2 -2 -3 -3 -3 -3 -3 -3 -4 -4 -4 -4 -4 -4 -4 -4 -5 -5 -5 -5 -5 -6 -6 -6 -6 -7 -7 -7 -7 -8 -8 -8 -8 -8 -8 -9
-1 -1 -1 -1 -2 -2 -2 -2 -3 -3 -3 -3 -3 -3 -4 -4 -4 -4 -4 -4 -5 -5 -5 -5 -5 -5 -6 -6 -6 -6 -6 -7 -7 -7 -7 -8 -8 -8 -8 -8 -9 -9 -9
-1 -2 -2 -2 -2 -2 -3 -3 -3 -4 -4 -4 -4 -4 -4 -4 -4 -4 -4 -5 -5 -5 -5 -6 -6 -6 -6 -6 -6 -7 -7 -7 -7 -7 -8 -8 -8 -8 -8 -9 -9 -9 -9
-2 -2 -2 -2 -3 -3 -3 -3 -4 -4 -4 -4 -4 -4 -4 -4 -4 -4 -5 -5 -5 -5 -6 -6 -6 -6 -6 -7 -7 -7 -7 -7 -8 -8 -8 -8 -8 -8 -9 -9 -9 -9 -9
-2 -3 -3 -3 -3 -3 -4 -4 -4 -4 -4 -4 -4 -4 -4 -5 -5 -5 -5 -5 -6 -6 -6 -6 -6 -7 -7 -7 -7 -7 -7 -8 -8 -8 -8 -8 -8 -9 -9 -9 -9 -9 -10
-3 -3 -3 -3 -4 -4 -4 -4 -5 -5 -5 -5 -5 -5 -5 -5 -5 -5 -5 -6 -6 -6 -6 -6 -7 -7 -7 -7 -7 -8 -8 -8 -8 -8 -8 -8 -9 -9 -9 -9 -9 -10 -10
Wind_Speed
3 3 3 3 3 3 3 4 4 4 3 4 4 3 3 3 3 3 3 3 3 3 2 2 3 2 1 1 1 1 1 2 4 3 2 2 2 3 6 8 9 8 9
3 3 3 3 2 3 4 4 4 4 4 4 4 4 4 4 4 4 5 4 4 4 4 3 3 2 2 2 1 2 2 2 3 4 3 2 3 3 4 4 6 7 8
2 3 3 2 3 4 4 4 4 4 4 4 4 5 5 5 5 5 5 5 5 5 5 5 4 3 4 3 3 3 2 2 2 3 3 2 2 2 3 4 4 5 7
2 2 3 3 4 4 4 4 4 4 4 4 5 5 5 5 5 5 5 5 5 5 5 5 5 5 5 5 4 4 3 2 2 3 4 3 3 3 2 3 4 4 5
2 3 4 4 3 3 3 4 3 3 4 4 4 5 5 4 5 6 6 6 6 5 5 5 6 7 8 6 5 4 4 3 3 3 4 3 3 2 2 2 4 5 4
3 4 4 3 3 3 4 3 3 4 4 4 4 5 5 5 8 9 7 6 6 6 6 5 6 7 8 9 9 8 7 5 4 4 4 5 5 4 3 3 3 4 4
3 4 4 3 4 4 4 3 4 4 4 4 5 5 6 7 10 10 10 6 6 6 6 6 5 5 7 5 7 9 8 9 9 5 6 6 5 4 3 3 4 4 5
3 4 4 3 4 4 4 4 5 4 4 5 5 6 6 8 10 10 10 6 5 6 6 6 6 6 6 6 5 5 6 6 7 5 6 6 6 5 5 4 4 5 5
4 4 4 4 4 4 5 6 5 4 4 5 5 5 6 8 10 10 9 4 5 6 6 6 7 7 10 10 6 6 6 6 8 10 11 10 10 10 6 2 3 3 5
5 5 4 4 4 5 6 5 4 4 5 5 5 5 6 7 10 10 9 4 5 5 5 6 10 10 11 11 7 7 8 7 5 5 6 7 7 7 8 5 4 4 4
5 5 4 4 5 6 5 4 4 4 5 5 6 6 6 8 9 11 11 5 6 6 6 5 6 12 13 13 11 8 10 8 5 5 4 4 3 3 4 4 4 4 5
4 4 5 5 5 4 4 5 4 4 5 5 5 6 5 6 8 10 12 11 9 7 7 6 6 11 12 13 10 10 12 9 4 4 4 4 4 4 4 4 6 7 8
4 5 5 5 5 4 4 5 4 4 4 5 5 6 6 5 6 11 12 13 13 8 7 10 11 12 11 9 11 12 9 5 4 5 6 5 4 4 3 3 4 5 7
5 6 5 5 5 4 4 4 4 5 5 5 6 6 6 5 5 5 5 7 9 8 7 9 12 11 9 8 8 7 5 5 5 6 5 4 3 3 4 3 3 3 4
5 6 5 5 5 5 5 5 6 6 7 7 7 6 6 7 8 10 7 5 5 6 4 3 3 3 5 5 4 5 4 4 5 4 5 4 4 4 4 3 3 3 4
5 5 5 4 4 5 5 6 9 11 13 14 14 11 9 12 14 14 13 13 12 11 6 4 5 6 6 6 6 5 5 5 5 5 5 5 5 5 4 4 4 4 5
6 6 5 5 5 5 5 5 7 7 10 12 13 14 13 13 14 14 13 12 12 11 7 6 6 6 6 6 6 6 6 5 5 5 6 6 5 5 4 4 4 5 5
6 7 6 5 5 5 5 6 5 6 7 6 8 11 13 13 13 12 12 9 7 7 5 6 6 6 6 6 6 6 5 5 5 5 5 5 5 5 5 5 5 5 5
6 5 5 5 5 5 5 5 6 7 7 8 7 8 10 10 11 11 9 6 6 6 6 6 6 6 5 6 6 5 5 5 5 5 5 6 5 5 5 5 5 8 7
6 9 7 5 5 5 5 5 6 7 7 7 7 7 5 5 5 6 5 5 6 6 6 6 6 6 6 6 6 5 5 5 5 5 5 5 5 5 6 6 5 5 5
5 6 8 6 5 6 6 6 7 7 7 8 8 8 10 6 6 7 6 6 6 6 6 6 6 6 6 5 5 6 6 6 6 5 5 5 5 5 5 5 5 6 5
5 5 5 6 6 6 6 6 7 7 8 9 8 8 12 7 6 7 7 6 6 6 6 6 6 5 6 6 6 6 6 6 6 5 5 5 5 5 5 5 5 5 5
5 6 6 6 6 9 8 6 7 7 8 8 8 7 7 6 7 7 7 6 5 5 5 5 6 5 5 5 6 6 6 6 6 6 6 5 5 5 5 5 6 5 6
6 6 7 7 6 7 7 7 7 8 8 8 8 7 7 7 7 7 6 5 5 5 5 5 5 6 7 5 6 7 7 7 7 6 7 6 6 5 5 5 6 6 6
6 6 7 7 7 7 8 8 8 8 8 8 7 7 7 7 7 6 6 5 5 5 6 5 5 5 7 7 7 7 9 10 9 7 6 6 6 6 6 6 5 5 6
6 7 7 7 7 7 8 8 8 8 8 8 7 7 7 7 7 6 5 5 5 5 5 5 5 6 6 7 8 9 9 10 10 9 6 5 5 5 5 5 6 6 6
Wind_Direction
237 232 239 247 243 239 242 249 248 250 245 241 239 236 235 232 220 212 223 216 218 234 235 232 251 250 254 262 247 234 228 211 246 273 264 298 314 325 334 340 342 342 341
242 235 242 253 253 252 256 259 251 250 245 239 237 237 238 234 221 215 226 223 220 228 232 228 245 239 243 246 232 233 235 224 225 265 283 298 296 302 313 321 334 336 332
250 249 260 262 260 261 262 263 254 249 250 244 236 238 240 235 227 222 220 222 223 226 223 221 232 224 239 240 234 235 241 242 224 246 277 281 287 298 315 312 313 321 327
253 254 264 265 260 263 265 264 259 251 248 245 239 239 239 236 230 226 221 222 226 229 227 224 225 220 229 232 235 233 228 233 231 245 266 276 274 284 299 306 315 317 317
260 264 266 271 269 268 271 271 268 258 252 247 245 247 241 236 233 226 222 223 224 230 233 231 229 229 232 231 233 226 215 222 231 245 262 274 275 278 282 287 302 312 300
261 267 273 276 274 271 272 275 276 271 263 253 248 247 246 245 248 244 231 221 221 224 234 237 237 242 244 249 250 244 226 220 228 237 252 257 263 252 254 271 292 317 310
272 275 276 274 276 277 278 279 274 269 262 260 255 250 251 252 255 254 245 225 221 227 231 234 241 237 242 239 255 259 257 253 246 233 240 248 251 238 231 253 257 263 270
276 277 277 278 282 285 280 272 269 262 258 259 260 255 256 260 261 258 253 237 226 230 230 228 232 241 235 229 229 242 249 254 255 248 236 242 243 235 225 239 252 270 270
275 276 276 272 276 281 278 274 269 264 265 260 262 257 255 262 263 259 254 235 234 238 234 229 229 235 245 245 234 239 251 256 259 254 252 255 259 260 249 240 261 285 291
269 271 271 263 262 267 269 270 262 257 262 267 268 259 253 258 263 257 251 230 237 245 243 237 240 240 248 249 234 231 247 253 245 256 259 265 269 268 261 240 229 248 268
270 275 276 269 264 264 268 263 265 265 270 270 271 268 258 256 262 258 250 232 230 240 244 243 240 247 251 252 245 232 244 250 238 238 247 250 249 246 248 240 226 226 239
277 279 280 276 272 271 270 274 271 264 271 276 276 280 267 261 259 258 254 249 244 236 244 243 242 249 252 253 251 247 252 256 236 233 245 246 243 242 240 237 238 238 239
281 280 280 281 275 268 264 270 276 262 261 270 269 274 279 268 263 263 262 259 255 247 245 249 252 255 255 254 253 253 254 237 224 238 244 245 238 236 235 241 247 250 255
277 280 279 279 281 277 265 254 254 257 258 260 262 266 273 272 265 259 254 262 260 255 251 254 256 256 250 247 253 253 235 221 225 237 243 240 230 228 233 231 243 255 266
276 277 278 272 272 276 269 253 252 247 244 250 254 254 262 271 266 261 259 251 244 245 247 243 237 240 237 236 237 235 228 225 233 226 232 238 240 242 242 230 231 239 250
273 275 273 273 273 271 276 284 263 257 266 264 260 257 258 262 274 274 269 265 261 257 253 240 240 239 240 238 236 234 228 227 228 226 228 232 237 239 244 238 235 240 254
258 268 270 268 268 269 268 275 291 290 271 268 268 267 265 271 274 274 273 268 262 257 246 240 240 239 240 237 233 230 232 229 225 225 228 230 233 236 239 243 244 249 255
259 263 263 262 261 263 263 265 269 282 293 290 278 274 274 275 276 275 272 268 260 249 238 241 240 239 238 235 231 231 231 228 226 229 229 229 228 232 237 241 240 245 256
263 263 260 259 258 259 261 265 267 269 274 282 289 286 277 277 277 273 268 251 249 249 244 242 239 238 236 233 230 227 226 226 226 226 229 228 226 226 235 237 241 254 258
261 264 265 262 262 263 261 262 267 269 271 273 274 277 281 277 272 268 254 245 247 249 245 243 240 236 232 230 226 224 226 228 226 226 229 227 223 224 233 237 240 247 251
262 268 270 268 260 259 259 261 263 265 268 270 270 269 270 267 264 262 259 253 250 250 247 244 240 234 229 225 221 221 224 228 225 224 226 224 221 227 232 235 237 242 250
255 260 259 260 263 262 263 260 263 265 267 270 275 276 276 267 260 260 258 256 252 249 245 242 238 231 224 218 215 216 223 229 226 221 223 223 222 226 229 233 237 245 251
253 260 264 263 262 271 274 267 266 269 271 272 274 275 272 265 261 259 258 256 253 250 244 236 235 232 225 221 217 214 220 227 224 217 218 221 222 224 227 233 238 247 254
250 255 262 268 268 266 269 271 270 270 271 273 273 271 269 266 264 262 259 255 251 249 241 234 232 231 226 225 226 225 227 229 225 221 216 216 219 223 227 234 241 247 254
250 256 262 266 268 270 270 271 271 270 270 271 271 271 269 268 266 264 257 252 250 250 244 236 232 230 228 226 228 231 235 234 231 222 214 215 217 222 230 238 244 253 258
254 258 262 265 267 268 270 271 271 269 269 269 267 267 267 266 265 263 258 252 251 248 244 236 231 230 231 233 234 236 238 239 237 231 221 215 216 228 232 242 244 252 260
Height
1500 1500 1500 1500 1499 1498 1498 1498 1498 1497 1496 1495 1495 1494 1493 1493 1492 1492 1491 1490 1490 1490 1489 1488 1488 1487 1486 1486 1485 1484 1483 1482 1480 1478 1478 1477 1476 1474 1473 1472 1470 1469 1467
1497 1497 1497 1496 1495 1495 1495 1494 1494 1493 1492 1491 1491 1490 1489 1489 1488 1488 1487 1487 1486 1486 1485 1484 1484 1483 1482 1482 1481 1480 1480 1478 1477 1474 1473 1473 1472 1471 1469 1468 1466 1465 1463
1494 1494 1493 1492 1492 1491 1491 1490 1489 1489 1488 1487 1486 1486 1485 1485 1484 1483 1483 1482 1482 1481 1481 1480 1480 1479 1479 1478 1477 1476 1475 1474 1473 1471 1469 1468 1467 1466 1465 1464 1462 1461 1459
1491 1490 1489 1488 1488 1487 1487 1486 1485 1484 1483 1483 1482 1482 1481 1480 1479 1479 1478 1478 1477 1477 1476 1476 1476 1475 1474 1473 1472 1472 1471 1470 1469 1467 1465 1464 1463 1462 1461 1459 1457 1456 1455
1487 1486 1485 1484 1484 1483 1483 1482 1481 1480 1479 1478 1478 1477 1476 1475 1475 1474 1474 1473 1472 1472 1472 1471 1471 1470 1469 1469 1468 1467 1466 1465 1464 1463 1461 1460 1459 1458 1457 1455 1453 1451 1450
1484 1482 1481 1481 1480 1479 1479 1478 1477 1475 1475 1474 1473 1472 1471 1470 1470 1469 1469 1468 1467 1467 1466 1466 1466 1465 1464 1464 1463 1462 1462 1461 1459 1459 1457 1456 1454 1454 1453 1451 1449 1447 1445
1480 1479 1478 1477 1476 1475 1474 1473 1472 1471 1470 1469 1468 1467 1466 1466 1465 1464 1463 1462 1462 1461 1461 1461 1460 1460 1459 1459 1458 1457 1456 1456 1455 1454 1452 1451 1450 1449 1448 1447 1445 1444 1442
1477 1476 1475 1473 1472 1471 1470 1469 1468 1466 1465 1464 1463 1462 1461 1460 1460 1459 1458 1457 1456 1455 1455 1455 1455 1454 1454 1453 1452 1451 1451 1451 1450 1449 1448 1447 1446 1445 1444 1443 1441 1439 1438
1473 1472 1471 1470 1468 1467 1466 1465 1463 1462 1460 1459 1458 1457 1456 1455 1454 1453 1452 1451 1450 1450 1449 1449 1449 1449 1448 1447 1447 1446 1445 1445 1445 1444 1443 1442 1441 1440 1439 1438 1437 1435 1432
1470 1469 1468 1466 1464 1463 1461 1460 1459 1457 1456 1454 1453 1452 1451 1450 1449 1448 1447 1445 1444 1444 1444 1443 1443 1443 1442 1442 1441 1440 1439 1439 1439 1438 1437 1436 1436 1435 1434 1434 1432 1431 1428
1466 1465 1464 1462 1461 1459 1457 1456 1454 1452 1451 1449 1448 1447 1446 1444 1443 1442 1441 1439 1438 1438 1437 1437 1437 1437 1436 1436 1435 1434 1433 1434 1432 1432 1431 1430 1430 1429 1429 1428 1427 1426 1425
1462 1461 1459 1458 1456 1454 1453 1451 1449 1447 1445 1443 1442 1440 1440 1439 1437 1436 1435 1434 1433 1432 1431 1431 1431 1431 1430 1430 1429 1428 1428 1428 1426 1425 1425 1424 1424 1424 1423 1423 1422 1421 1420
1458 1457 1455 1453 1452 1450 1448 1446 1444 1442 1440 1438 1436 1434 1433 1433 1432 1430 1429 1428 1427 1426 1425 1425 1425 1424 1424 1423 1423 1422 1422 1421 1420 1419 1418 1418 1418 1418 1417 1417 1416 1415 1414
1454 1452 1450 1448 1446 1445 1443 1441 1439 1437 1435 1433 1431 1429 1427 1426 1425 1424 1423 1422 1421 1419 1419 1418 1418 1417 1417 1417 1416 1416 1416 1415 1414 1413 1412 1412 1412 1412 1411 1411 1410 1409 1408
1449 1447 1445 1443 1441 1439 1438 1436 1434 1432 1430 1428 1425 1423 1421 1419 1419 1418 1417 1415 1415 1414 1413 1412 1411 1411 1410 1410 1410 1410 1409 1409 1408 1407 1407 1406 1406 1406 1405 1405 1404 1403 1402
1444 1442 1440 1438 1436 1434 1432 1430 1428 1427 1424 1422 1420 1418 1416 1415 1413 1412 1410 1409 1408 1408 1407 1405 1405 1404 1404 1404 1403 1403 1403 1402 1402 1402 1401 1401 1400 1400 1399 1399 1398 1397 1396
1439 1437 1435 1433 1431 1428 1426 1423 1421 1419 1418 1416 1414 1412 1411 1409 1407 1406 1404 1403 1403 1402 1400 1399 1398 1398 1398 1397 1397 1397 1396 1396 1396 1396 1395 1395 1394 1394 1394 1393 1392 1391 1390
1434 1432 1430 1427 1425 1423 1420 1418 1415 1412 1410 1408 1408 1406 1404 1403 1401 1400 1399 1397 1396 1395 1394 1393 1392 1392 1392 1391 1391 1391 1391 1390 1390 1390 1389 1389 1389 1388 1388 1387 1387 1386 1385
1428 1426 1424 1421 1419 1417 1414 1412 1410 1407 1405 1402 1401 1400 1399 1396 1395 1394 1392 1391 1389 1388 1388 1387 1387 1386 1386 1385 1385 1385 1385 1384 1384 1384 1383 1383 1383 1383 1382 1382 1381 1381 1380
1422 1420 1417 1415 1413 1410 1408 1406 1404 1401 1399 1396 1394 1393 1392 1390 1388 1387 1386 1385 1383 1382 1382 1381 1380 1380 1380 1379 1379 1379 1379 1378 1378 1378 1378 1378 1378 1377 1377 1376 1376 1375 1374
1415 1413 1411 1409 1407 1404 1402 1400 1398 1395 1393 1391 1389 1387 1386 1384 1382 1381 1380 1378 1377 1376 1375 1375 1374 1374 1373 1373 1373 1373 1373 1372 1372 1372 1372 1372 1372 1372 1372 1371 1371 1370 1369
1409 1407 1405 1403 1400 1398 1396 1394 1392 1389 1387 1385 1382 1381 1380 1378 1376 1374 1373 1372 1371 1370 1369 1368 1368 1367 1367 1367 1367 1367 1367 1367 1367 1367 1367 1367 1367 1366 1366 1366 1365 1365 1364
1403 1401 1399 1396 1394 1392 1390 1387 1385 1383 1381 1379 1377 1375 1373 1371 1370 1368 1367 1365 1364 1363 1363 1362 1361 1361 1361 1361 1361 1361 1361 1361 1361 1361 1361 1361 1361 1361 1361 1360 1360 1359 1359
1397 1395 1392 1390 1388 1386 1383 1381 1379 1377 1375 1372 1371 1369 1367 1365 1363 1362 1361 1359 1358 1357 1356 1356 1355 1355 1355 1355 1355 1355 1355 1356 1356 1356 1356 1356 1356 1356 1356 1355 1355 1354 1354
1390 1388 1386 1384 1381 1379 1377 1374 1372 1370 1368 1366 1364 1363 1361 1359 1357 1356 1355 1353 1352 1351 1351 1350 1350 1350 1350 1350 1350 1350 1351 1351 1351 1351 1351 1351 1351 1351 1351 1350 1350 1349 1349
1384 1382 1379 1377 1375 1372 1370 1368 1366 1364 1362 1360 1358 1357 1355 1353 1352 1350 1349 1348 1346 1346 1345 1345 1345 1345 1345 1345 1345 1345 1346 1346 1346 1347 1347 1347 1347 1346 1346 1346 1345 1345 1344